Location: Miami, Florida
(25.6830°N, 80.1700°W)
Time: 22:22:10
(UTC-04:00)

Vanguard 2 Rocket - Visible Passes

Search period start: 20 January 2018 00:00
Search period end: 30 January 2018 00:00
Orbit: 556 x 3326 km, 32.9° (Epoch: 20 January)

Date Brightness Start Highest point End Pass type
(mag) Time Alt. Az. Time Alt. Az. Time Alt. Az.
20 Jan 10.4 05:09:34 10° SSW 05:23:04 26° SSE 05:32:55 10° E visible
20 Jan 9.0 07:24:30 10° SW 07:39:46 60° SSE 07:48:24 10° ENE visible
21 Jan 10.7 04:10:06 10° S 04:21:37 19° SE 04:31:00 10° ESE visible
21 Jan 9.5 06:22:46 10° SW 06:39:03 48° SSE 06:48:59 10° E visible
22 Jan 11.0 03:12:59 10° SSE 03:19:53 13° SE 03:26:13 10° ESE visible
22 Jan 10.0 05:21:31 10° SSW 05:37:57 38° SSE 05:49:03 10° E visible
22 Jan 8.7 07:38:32 10° WSW 07:54:27 80° SSE 08:03:13 10° ENE visible
23 Jan 10.3 04:20:59 10° SSW 04:36:32 30° SE 04:48:17 10° E visible
23 Jan 9.1 06:36:14 10° SW 06:53:45 66° SSE 07:04:01 10° ENE visible
24 Jan 10.6 03:23:51 13° S 03:34:54 22° SE 03:46:15 10° E visible
24 Jan 9.5 05:34:24 10° SW 05:52:38 53° SSE 06:04:23 10° ENE visible
25 Jan 10.9 02:31:56 15° SE 02:33:08 15° SE 02:41:41 10° ESE visible
25 Jan 9.9 04:38:02 20° SSW 04:51:12 43° SSE 05:04:12 10° E visible
25 Jan 8.9 06:50:20 10° WSW 07:08:23 84° SSE 07:18:48 10° ENE visible
26 Jan 10.3 03:44:26 29° SSE 03:49:34 33° SE 04:03:10 10° E visible
26 Jan 9.2 05:50:26 15° SW 06:07:14 70° SSE 06:19:21 10° ENE visible
27 Jan 10.6 02:50:09 24° SE 02:50:09 24° SE 03:00:49 10° E visible
27 Jan 9.5 04:56:07 34° SSW 05:05:44 58° SSE 05:19:26 10° ENE visible
27 Jan 8.8 07:04:57 10° WSW 07:23:03 81° NNW 07:33:30 10° ENE visible
28 Jan 11.0 01:55:26 11° ESE 01:55:26 11° ESE 01:56:04 10° ESE visible
28 Jan 9.9 04:01:21 44° SSE 04:04:02 46° SE 04:18:55 10° ENE visible
28 Jan 9.0 06:07:16 22° WSW 06:21:49 86° SSE 06:34:06 10° ENE visible
29 Jan 10.3 03:06:16 33° ESE 03:06:16 33° ESE 03:17:30 10° E visible
29 Jan 9.3 05:12:10 45° SW 05:20:14 73° SSE 05:34:19 10° ENE visible
29 Jan 8.9 07:19:58 10° W 07:37:52 70° NNW 07:48:15 10° ENE visible
